�N����,����,����,����,����,�C��,���x,�~����,�S�V����,�ő�u�ԕ���,,,
,,,,,,,,,����,����,����,�N��
yyyy/mm/dd,hh:mm:ss,(16),16����,m/s,��,%,mm,KW/�u,(16),16����,m/s,Time
2014/10/1,1:00:00,11,���쐼,1.4,5.6,93.7,0,0,13,���k��,3.5,1
2014/10/1,2:00:00,11,���쐼,0.7,4.4,95.1,0,0,12,��,3.2,23
2014/10/1,3:00:00,11,���쐼,1,4.1,96.1,0,0,12,��,2.6,27
2014/10/1,4:00:00,13,���k��,1.1,2.6,99,0,0,13,���k��,2.8,51
2014/10/1,5:00:00,13,���k��,1.9,2.5,99,0,0,12,��,3.3,49
2014/10/1,6:00:00,13,���k��,2.1,3.3,97.9,0,0.03,14,�k��,2.6,53
2014/10/1,7:00:00,14,�k��,0.5,7.7,84.6,0,0.2,13,���k��,3.1,58
2014/10/1,8:00:00,14,�k��,0.7,11.2,66.8,0,0.4,12,��,2.3,21
2014/10/1,9:00:00,5,���쓌,1,12.4,61.1,0,0.58,3,���k��,2.7,15
2014/10/1,10:00:00,5,���쓌,2.3,13,58.2,0,0.7,5,���쓌,5.3,38
2014/10/1,11:00:00,6,�쓌,2.5,13.7,59.6,0,0.77,6,�쓌,5,24
2014/10/1,12:00:00,7,��쓌,3.2,14.1,53.7,0,0.79,8,��,5.7,47
2014/10/1,13:00:00,7,��쓌,3.5,13.2,55.7,0,0.74,6,�쓌,7.4,45
2014/10/1,14:00:00,7,��쓌,3.5,13.9,61,0,0.64,8,��,6.1,7
2014/10/1,15:00:00,6,�쓌,2.5,14.2,65.5,0,0.49,7,��쓌,5.1,2
2014/10/1,16:00:00,7,��쓌,0.9,13.8,68.8,0,0.28,7,��쓌,4.1,2
2014/10/1,17:00:00,12,��,0.5,11.1,86,0,0.07,10,�쐼,2,20
2014/10/1,18:00:00,12,��,1.8,9.5,93.1,0,0,12,��,2.3,53
2014/10/1,19:00:00,12,��,2.2,8,96.1,0,0,12,��,2.7,59
2014/10/1,20:00:00,13,���k��,2.5,7.1,97.7,0,0,12,��,3.5,36
2014/10/1,21:00:00,13,���k��,2.5,6.1,98.1,0,0,13,���k��,3,59
2014/10/1,22:00:00,12,��,1.2,5.6,99.4,0,0,8,��,3,13
2014/10/1,23:00:00,13,���k��,1.9,5.7,99.5,0,0,12,��,3.4,52
2014/10/1,0:00:00,14,�k��,2.8,7,91.2,0,0,13,���k��,5.1,14
2014/10/2,1:00:00,13,���k��,1.7,6.1,92.7,0,0,14,�k��,5.4,4
2014/10/2,2:00:00,13,���k��,2.2,4.7,96.2,0,0,12,��,3.6,15
2014/10/2,3:00:00,12,��,1.8,3.7,98,0,0,13,���k��,3,3
2014/10/2,4:00:00,12,��,1.8,4.3,97.1,0,0,13,���k��,2.5,8
2014/10/2,5:00:00,12,��,1.5,4.2,96.5,0,0,12,��,2.7,19
2014/10/2,6:00:00,12,��,2.3,3.6,99.5,0,0.02,13,���k��,3,59
2014/10/2,7:00:00,13,���k��,1.8,7.7,85.6,0,0.17,14,�k��,3.1,40
2014/10/2,8:00:00,12,��,0.5,11.2,76.5,0,0.39,14,�k��,3.4,12
2014/10/2,9:00:00,13,���k��,0.7,13.9,71.3,0,0.49,12,��,2.1,43
2014/10/2,10:00:00,5,���쓌,2.9,13.5,74.2,0,0.47,6,�쓌,4.5,43
2014/10/2,11:00:00,5,���쓌,2.2,13.9,69,0,0.47,5,���쓌,4.1,44
2014/10/2,12:00:00,5,���쓌,2.4,14.4,77.9,0,0.47,5,���쓌,4.5,31
2014/10/2,13:00:00,6,�쓌,2.1,14.1,72.4,0,0.42,5,���쓌,4.4,7
2014/10/2,14:00:00,5,���쓌,2.6,14,72.2,0,0.33,5,���쓌,4.5,2
2014/10/2,15:00:00,5,���쓌,1.6,14.2,65.7,0,0.24,4,��,3.6,4
2014/10/2,16:00:00,2,�k��,1,13.1,76.1,0,0.12,3,���k��,2.3,21
2014/10/2,17:00:00,15,�k�k��,0.7,11.1,89.7,0,0.04,14,�k��,1.2,53
2014/10/2,18:00:00,12,��,1.7,10.1,95.4,0,0,13,���k��,2.5,59
2014/10/2,19:00:00,13,���k��,2.5,9.7,93.2,0,0,13,���k��,4.1,47
2014/10/2,20:00:00,13,���k��,2.5,8.8,94.5,0,0,14,�k��,3.4,3
2014/10/2,21:00:00,13,���k��,2.2,9.2,92.9,0,0,13,���k��,3,0
2014/10/2,22:00:00,13,���k��,1,9.7,91.4,0,0,12,��,3.2,37
2014/10/2,23:00:00,13,���k��,0.6,10.3,90.1,0,0,13,���k��,2.7,39
2014/10/2,0:00:00,14,�k��,1.9,10.3,90.4,0,0,14,�k��,3.3,55
2014/10/3,1:00:00,15,�k�k��,1,10.5,88.2,0,0,15,�k�k��,3.6,27
2014/10/3,2:00:00,13,���k��,2,9.9,94,0.5,0,13,���k��,4.1,53
2014/10/3,3:00:00,13,���k��,1.4,9.7,96.5,0,0,13,���k��,2.7,22
2014/10/3,4:00:00,13,���k��,1.8,9.8,98.4,0,0,12,��,3.1,47
2014/10/3,5:00:00,13,���k��,1.9,9.6,97.5,0,0,13,���k��,4.3,54
2014/10/3,6:00:00,13,���k��,3.3,9.7,98.3,0,0,13,���k��,5.5,48
2014/10/3,7:00:00,13,���k��,3.8,9.9,97.9,0,0.02,13,���k��,6.2,59
2014/10/3,8:00:00,13,���k��,2.7,10.2,97.9,0,0.04,13,���k��,6.7,0
2014/10/3,9:00:00,13,���k��,3.1,10.7,98.3,0.5,0.09,13,���k��,5.5,47
2014/10/3,10:00:00,14,�k��,2.5,11.3,97.5,0,0.09,14,�k��,4.6,8
2014/10/3,11:00:00,14,�k��,1.7,12.1,96.6,0,0.14,14,�k��,4.2,0
2014/10/3,12:00:00,14,�k��,1.9,12.1,98.1,0,0.11,14,�k��,3.7,54
2014/10/3,13:00:00,13,���k��,2.4,12,98.8,0,0.1,14,�k��,4.1,2
2014/10/3,14:00:00,14,�k��,1.3,12.4,99.1,0,0.09,14,�k��,3.6,41
2014/10/3,15:00:00,13,���k��,1.9,13,97.7,0,0.09,13,���k��,3.5,15
2014/10/3,16:00:00,14,�k��,1.4,12.8,99,0,0.06,13,���k��,3.4,5
2014/10/3,17:00:00,14,�k��,1.4,12.6,99.5,0,0.02,13,���k��,3.1,22
2014/10/3,18:00:00,11,���쐼,0.3,12.5,100,0,0,13,���k��,2,10
2014/10/3,19:00:00,2,�k��,0.3,12.6,100,2,0,12,��,2.5,17
2014/10/3,20:00:00,2,�k��,0.9,13.3,100,0,0,1,�k�k��,3.3,59
2014/10/3,21:00:00,13,���k��,2.1,12.9,100,0,0,12,��,4.4,48
2014/10/3,22:00:00,13,���k��,3.6,12.4,100,0,0,12,��,6.6,36
2014/10/3,23:00:00,16,�k,1.3,11.9,100,0,0,13,���k��,6.3,42
2014/10/3,0:00:00,14,�k��,1.2,11.3,100,0,0,12,��,3.9,29
2014/10/4,1:00:00,14,�k��,1.9,11,100,0,0,14,�k��,4.2,39
2014/10/4,2:00:00,13,���k��,1.5,9.6,100,0,0,14,�k��,3.3,28
2014/10/4,3:00:00,1,�k�k��,1.4,9.1,100,0,0,12,��,3.3,19
2014/10/4,4:00:00,12,��,2.9,10,100,0,0,13,���k��,3.9,46
2014/10/4,5:00:00,16,�k,0.7,7.8,100,0,0,12,��,3,0
2014/10/4,6:00:00,6,�É�,0.2,7.3,100,0,0.03,8,��,2.5,27
2014/10/4,7:00:00,15,�k�k��,0.5,13.2,92.1,0,0.2,15,�k�k��,2.5,45
2014/10/4,8:00:00,12,��,1.2,13.1,92.6,0,0.18,12,��,2,46
2014/10/4,9:00:00,6,�쓌,0.7,15.3,74.8,0,0.37,5,���쓌,1.8,55
2014/10/4,10:00:00,6,�쓌,2.4,16.5,72.4,0,0.7,5,���쓌,3.9,47
2014/10/4,11:00:00,6,�쓌,3.1,16.1,74.5,0,0.76,6,�쓌,5.9,40
2014/10/4,12:00:00,6,�쓌,3.1,15.6,74,0,0.66,6,�쓌,5.1,57
2014/10/4,13:00:00,6,�쓌,3.6,16.5,76.1,0,0.7,7,��쓌,6,25
2014/10/4,14:00:00,6,�쓌,3.9,16.4,78.6,0,0.6,6,�쓌,6.3,27
2014/10/4,15:00:00,2,�k��,0.7,15.2,92.1,0.5,0.27,6,�쓌,5.5,3
2014/10/4,16:00:00,4,��,2.1,15.6,89.3,0,0.23,4,��,3.4,55
2014/10/4,17:00:00,2,�k��,1.1,12.8,96.4,0,0.05,3,���k��,3.4,0
2014/10/4,18:00:00,13,���k��,1.6,12.2,98.4,0,0,13,���k��,2.4,0
2014/10/4,19:00:00,14,�k��,3.8,12.4,74.6,0,0,13,���k��,8.5,52
2014/10/4,20:00:00,14,�k��,3.7,10.8,73.9,0,0,15,�k�k��,8.5,16
2014/10/4,21:00:00,15,�k�k��,4.4,11.2,61.7,0,0,13,���k��,11.3,8
2014/10/4,22:00:00,15,�k�k��,5.4,10.7,61.3,0,0,1,�k�k��,12.1,44
2014/10/4,23:00:00,16,�k,5.4,10.2,58.8,0,0,1,�k�k��,12.2,47
2014/10/4,0:00:00,15,�k�k��,3.3,10.4,54.8,0,0,15,�k�k��,10.9,7
2014/10/5,1:00:00,14,�k��,2.5,9.7,59.1,0,0,1,�k�k��,8.3,16
2014/10/5,2:00:00,12,��,3.2,5.7,82.7,0,0,14,�k��,5.8,3
2014/10/5,3:00:00,11,���쐼,3.2,4.1,93,0,0,11,���쐼,4.6,35
2014/10/5,4:00:00,13,���k��,1.7,3.7,93.8,0,0,11,���쐼,3.4,0
2014/10/5,5:00:00,12,��,2.4,3.9,92.7,0,0,13,���k��,2.9,3
2014/10/5,6:00:00,12,��,3.1,3.5,94.6,0,0.02,12,��,4,38
2014/10/5,7:00:00,12,��,1.7,7.1,83.6,0,0.17,12,��,3.5,0
2014/10/5,8:00:00,12,��,1.5,9.9,77,0,0.32,12,��,3.2,20
2014/10/5,9:00:00,9,��쐼,1.1,13.2,61.2,0,0.54,13,���k��,2.5,13
2014/10/5,10:00:00,5,���쓌,2.1,14.9,57.6,0,0.65,5,���쓌,4.2,26
2014/10/5,11:00:00,7,��쓌,2.5,14.3,53.2,0,0.75,5,���쓌,4.4,45
2014/10/5,12:00:00,7,��쓌,2.1,15.5,53.3,0,0.71,7,��쓌,5,24
2014/10/5,13:00:00,6,�쓌,2.9,15.1,54.4,0,0.67,6,�쓌,4.9,0
2014/10/5,14:00:00,6,�쓌,2.9,14.8,56.7,0,0.6,6,�쓌,4.7,53
2014/10/5,15:00:00,5,���쓌,1.1,14.8,58.5,0,0.41,7,��쓌,4,6
2014/10/5,16:00:00,4,��,0.3,14.2,65.1,0,0.18,5,���쓌,2.2,16
2014/10/5,17:00:00,12,��,0.5,11.4,85.2,0,0.06,11,���쐼,1.2,25
2014/10/5,18:00:00,12,��,1.2,10.1,88.6,0,0,12,��,2,40
2014/10/5,19:00:00,16,�k,0.9,8.9,89.5,0,0,12,��,3.2,36
2014/10/5,20:00:00,12,��,2.2,8.5,93.2,0,0,12,��,2.6,56
2014/10/5,21:00:00,13,���k��,2.3,8.4,89.9,0,0,12,��,3.2,17
2014/10/5,22:00:00,12,��,1.6,8.1,90.3,0,0,13,���k��,2.6,16
2014/10/5,23:00:00,13,���k��,2.4,8.3,89.4,0,0,13,���k��,3,48
2014/10/5,0:00:00,13,���k��,1.6,8.5,85.2,0,0,14,�k��,3.4,42
2014/10/6,1:00:00,14,�k��,1.3,8.2,88.3,0,0,13,���k��,3,1
2014/10/6,2:00:00,15,�k�k��,0.7,8.8,84.9,0,0,1,�k�k��,2.7,48
2014/10/6,3:00:00,13,���k��,1.6,8.4,87.9,0,0,13,���k��,2.5,52
2014/10/6,4:00:00,14,�k��,1.5,8.3,88.8,0,0,13,���k��,3.5,46
2014/10/6,5:00:00,14,�k��,2.3,8.1,89.9,0,0,14,�k��,5.3,17
2014/10/6,6:00:00,14,�k��,2,8.2,89.3,0,0.01,14,�k��,5.6,31
2014/10/6,7:00:00,14,�k��,2.5,8.5,87.4,0,0.04,14,�k��,5.7,44
2014/10/6,8:00:00,13,���k��,3,9,86,0,0.06,14,�k��,5.7,8
2014/10/6,9:00:00,14,�k��,3.6,9.7,81.5,0,0.08,13,���k��,6.6,12
2014/10/6,10:00:00,14,�k��,1.9,10.2,83.3,0,0.1,14,�k��,6.3,25
2014/10/6,11:00:00,15,�k�k��,1.8,10.1,84,0,0.06,14,�k��,4.3,40
2014/10/6,12:00:00,15,�k�k��,1.4,9.5,91.1,0.5,0.05,1,�k�k��,4.5,3
2014/10/6,13:00:00,14,�k��,1.8,9.4,95.7,1.5,0.07,16,�k,3.6,12
2014/10/6,14:00:00,1,�k�k��,2.4,9.9,95,0.5,0.06,1,�k�k��,5.3,58
2014/10/6,15:00:00,15,�k�k��,1.6,9.7,95.8,2,0.03,1,�k�k��,4.9,21
2014/10/6,16:00:00,16,�k,2.1,9.6,96.6,2,0.02,1,�k�k��,4.9,23
2014/10/6,17:00:00,16,�k,3.1,9.5,95.6,1.5,0.01,16,�k,5.8,42
2014/10/6,18:00:00,16,�k,3.6,9.2,95.2,2,0,15,�k�k��,7.1,26
2014/10/6,19:00:00,1,�k�k��,3.1,8.8,94.3,1,0,1,�k�k��,6.9,4
2014/10/6,20:00:00,14,�k��,2.4,8.7,95.3,0,0,1,�k�k��,5,12
2014/10/6,21:00:00,14,�k��,2.3,8.7,95.3,0.5,0,13,���k��,4.7,49
2014/10/6,22:00:00,13,���k��,3.6,8.6,96.3,0,0,13,���k��,6.6,44
2014/10/6,23:00:00,14,�k��,2.2,8.6,94,0,0,13,���k��,5.8,3
2014/10/6,0:00:00,14,�k��,1.9,7.3,94.4,0,0,14,�k��,4.2,12
2014/10/7,1:00:00,13,���k��,3.8,6.5,92.9,0,0,13,���k��,6.5,55
2014/10/7,2:00:00,14,�k��,3.4,6.1,89.1,0,0,14,�k��,5.8,32
2014/10/7,3:00:00,13,���k��,3.5,5.3,90.3,0,0,14,�k��,5.4,50
2014/10/7,4:00:00,13,���k��,3,3.8,93.4,0,0,13,���k��,5.5,46
2014/10/7,5:00:00,13,���k��,3.2,4.4,89.1,0,0,13,���k��,4.9,17
2014/10/7,6:00:00,13,���k��,2.8,4.2,88.7,0,0.02,14,�k��,5.5,24
2014/10/7,7:00:00,13,���k��,3.1,5.7,84.4,0,0.17,13,���k��,5.4,20
2014/10/7,8:00:00,13,���k��,2.6,8.5,81.7,0,0.38,14,�k��,5,40
2014/10/7,9:00:00,14,�k��,2.1,10.9,65.9,0,0.56,13,���k��,4.5,4
2014/10/7,10:00:00,14,�k��,1.7,12.9,55.8,0,0.68,13,���k��,3.9,29
2014/10/7,11:00:00,11,���쐼,1.8,13.5,47.5,0,0.76,12,��,3.6,51
2014/10/7,12:00:00,7,��쓌,3.1,13.3,48.4,0,0.77,7,��쓌,5,55
2014/10/7,13:00:00,7,��쓌,3.3,14.3,52.2,0,0.72,7,��쓌,5.8,48
2014/10/7,14:00:00,8,��,3.3,13.7,47.6,0,0.62,8,��,5.6,2
2014/10/7,15:00:00,8,��,2.8,13.1,52.2,0,0.47,8,��,6.6,6
2014/10/7,16:00:00,7,��쓌,1.7,12.5,60.5,0,0.27,8,��,5.6,0
2014/10/7,17:00:00,2,�k��,1,9.9,83.5,0,0.07,7,��쓌,3.1,9
2014/10/7,18:00:00,13,���k��,1.5,8,88.4,0,0,12,��,2.7,42
2014/10/7,19:00:00,13,���k��,2.5,6.2,91.8,0,0,12,��,3.6,57
2014/10/7,20:00:00,12,��,2.1,5.7,93.2,0,0,13,���k��,3.4,15
2014/10/7,21:00:00,13,���k��,2.8,5.6,92.9,0,0,14,�k��,4.2,57
2014/10/7,22:00:00,12,��,2.1,4.7,93.8,0,0,13,���k��,3.6,10
2014/10/7,23:00:00,15,�k�k��,0.7,4.5,91.5,0,0,14,�k��,3,7
2014/10/7,0:00:00,12,��,2,3.8,96.3,0,0,13,���k��,2.8,54
2014/10/8,1:00:00,12,��,1.4,3.1,97,0,0,13,���k��,3,7
2014/10/8,2:00:00,12,��,1.6,2.5,96.3,0,0,12,��,2.4,59
2014/10/8,3:00:00,12,��,1.7,3.2,99.3,0,0,13,���k��,2.9,43
2014/10/8,4:00:00,13,���k��,1.8,1.8,98.8,0,0,13,���k��,3.2,51
2014/10/8,5:00:00,11,���쐼,1.2,1,98.9,0,0,14,�k��,2.5,15
2014/10/8,6:00:00,13,���k��,1,1.8,99.4,0,0.02,12,��,2.5,25
2014/10/8,7:00:00,13,���k��,1.2,5.6,88.1,0,0.16,13,���k��,2.8,31
2014/10/8,8:00:00,13,���k��,1.7,9.2,76.1,0,0.36,13,���k��,3.2,15
2014/10/8,9:00:00,13,�É�,0,12.5,60.1,0,0.53,13,���k��,2.4,5
2014/10/8,10:00:00,7,��쓌,2,14.2,58.4,0,0.65,7,��쓌,3.5,31
2014/10/8,11:00:00,6,�쓌,2.6,14.3,65.8,0,0.72,8,��,3.9,8
2014/10/8,12:00:00,6,�쓌,2.5,16.3,67.6,0,0.74,8,��,4.3,40
2014/10/8,13:00:00,4,��,2.5,16.2,70.2,0,0.68,6,�쓌,5.4,20
2014/10/8,14:00:00,3,���k��,3.1,16.6,63.6,0,0.61,3,���k��,4.6,14
2014/10/8,15:00:00,3,���k��,2.6,15.9,67.3,0,0.43,5,���쓌,4.3,25
2014/10/8,16:00:00,3,���k��,1.9,13.6,76.5,0,0.21,2,�k��,3.7,38
2014/10/8,17:00:00,2,�k��,1.4,11.3,91.1,0,0.03,3,���k��,3.1,35
2014/10/8,18:00:00,13,���k��,2.1,10.4,93.9,0,0,12,��,2.8,59
2014/10/8,19:00:00,13,���k��,1.2,11.4,87,0,0,13,���k��,4.2,35
2014/10/8,20:00:00,1,�k�k��,1.3,9.5,92.7,0,0,3,���k��,4,47
2014/10/8,21:00:00,13,���k��,2.1,8.8,95.4,0,0,13,���k��,3.1,57
2014/10/8,22:00:00,12,��,2.2,8.1,95.8,0,0,12,��,3.7,12
2014/10/8,23:00:00,13,���k��,2.2,7.2,97.3,0,0,13,���k��,3.1,53
2014/10/8,0:00:00,13,���k��,2,6.6,97.3,0,0,14,�k��,3.6,32
2014/10/9,1:00:00,13,���k��,2,5.9,97.2,0,0,12,��,3.5,33
2014/10/9,2:00:00,13,���k��,1,6,95.6,0,0,13,���k��,3.6,12
2014/10/9,3:00:00,13,���k��,1.3,6.6,94.4,0,0,13,���k��,4.2,44
2014/10/9,4:00:00,14,�k��,2.3,6.9,90.2,0,0,13,���k��,5.1,10
2014/10/9,5:00:00,13,���k��,2.4,4.8,95.1,0,0,13,���k��,4.1,21
2014/10/9,6:00:00,13,���k��,1.9,5.2,93.3,0,0.02,13,���k��,4,15
2014/10/9,7:00:00,13,���k��,2.3,7.9,85,0,0.15,13,���k��,3.9,29
2014/10/9,8:00:00,13,���k��,1.9,10.7,79.2,0,0.35,13,���k��,3.3,37
2014/10/9,9:00:00,13,�É�,0.2,14.2,68.1,0,0.53,12,��,2.5,9
2014/10/9,10:00:00,6,�쓌,2,15.3,71.9,0,0.63,6,�쓌,3.4,45
2014/10/9,11:00:00,6,�쓌,2.5,15.3,64.8,0,0.72,5,���쓌,4.6,40
2014/10/9,12:00:00,6,�쓌,2.8,16.3,69.1,0,0.73,6,�쓌,4.8,32
2014/10/9,13:00:00,7,��쓌,2.5,15.1,71.6,0,0.68,6,�쓌,4.6,12
2014/10/9,14:00:00,8,��,2.3,15.2,73.3,0,0.59,7,��쓌,4.7,43
2014/10/9,15:00:00,7,��쓌,1.6,15.2,76.4,0,0.43,7,��쓌,3.9,0
2014/10/9,16:00:00,6,�쓌,0.6,14.8,81,0,0.23,8,��,3,8
2014/10/9,17:00:00,12,��,0.4,11.8,95.1,0,0.05,5,���쓌,1.1,11
2014/10/9,18:00:00,13,���k��,0.8,9.6,98.8,0,0,12,��,2.2,43
2014/10/9,19:00:00,12,��,2.1,8.7,99.1,0,0,12,��,2.6,58
2014/10/9,20:00:00,12,��,1.3,7.4,98.6,0,0,12,��,3.6,29
2014/10/9,21:00:00,12,��,2.3,6.9,98.2,0,0,12,��,3.4,34
2014/10/9,22:00:00,12,��,1.7,5.8,98.9,0,0,12,��,3.2,27
2014/10/9,23:00:00,12,��,1.5,5.5,99.3,0,0,13,���k��,3.3,2
2014/10/9,0:00:00,12,��,1.9,5.3,99.7,0,0,12,��,3.2,31
2014/10/10,1:00:00,13,���k��,1.9,6.7,99.2,0,0,12,��,3.2,10
2014/10/10,2:00:00,13,���k��,1.6,6.3,97.6,0,0,13,���k��,3.4,50
2014/10/10,3:00:00,13,���k��,1.3,6.6,96,0,0,13,���k��,3.1,38
2014/10/10,4:00:00,12,��,2.3,6.6,97.2,0,0,13,���k��,3.6,11
2014/10/10,5:00:00,13,���k��,3,6,97.3,0,0,13,���k��,4.1,58
2014/10/10,6:00:00,14,�k��,1.5,6,97.8,0,0.01,12,��,4.3,15
2014/10/10,7:00:00,13,���k��,5.3,8.3,96.3,0.5,0.03,14,�k��,9.6,42
2014/10/10,8:00:00,14,�k��,0.3,10.4,97.8,3.5,0.12,14,�k��,9.6,0
2014/10/10,9:00:00,12,��,1.1,12.1,92.1,0,0.34,12,��,2.7,18
2014/10/10,10:00:00,13,���k��,1,13.2,94.8,0,0.15,14,�k��,3.1,29
2014/10/10,11:00:00,14,�k��,3.3,15.7,74.4,0,0.71,14,�k��,6.8,47
2014/10/10,12:00:00,13,���k��,4.1,17.5,62.2,0,0.74,14,�k��,7,49
2014/10/10,13:00:00,14,�k��,4.7,18.1,50.4,0,0.69,13,���k��,9.8,40
2014/10/10,14:00:00,15,�k�k��,4.9,17.8,52.2,0,0.6,14,�k��,11.6,37
2014/10/10,15:00:00,15,�k�k��,3.4,15.4,59,0,0.46,16,�k,10.7,4
2014/10/10,16:00:00,15,�k�k��,3.9,14.9,46,0,0.25,14,�k��,12.8,41
2014/10/10,17:00:00,1,�k�k��,3.9,11.8,65.8,0,0.05,14,�k��,11.4,0
2014/10/10,18:00:00,16,�k,2.7,10.6,65.3,0,0,1,�k�k��,7.8,5
2014/10/10,19:00:00,15,�k�k��,3.9,11.6,53.4,0,0,1,�k�k��,10.3,47
2014/10/10,20:00:00,13,���k��,2.2,9.7,61.4,0,0,13,���k��,7.8,19
2014/10/10,21:00:00,14,�k��,3,9.9,58.9,0,0,13,���k��,6.5,51
2014/10/10,22:00:00,12,��,2,5.6,79.4,0,0,14,�k��,4.9,0
2014/10/10,23:00:00,10,�쐼,0.8,3.8,90.7,0,0,11,���쐼,4.3,22
2014/10/10,0:00:00,2,�k��,1,3.5,86.2,0,0,1,�k�k��,3.5,57
2014/10/11,1:00:00,13,���k��,1.4,2.4,95.3,0,0,10,�쐼,2.5,20
2014/10/11,2:00:00,12,��,2.3,4.6,87.9,0,0,13,���k��,3.6,25
2014/10/11,3:00:00,14,�k��,1.8,4.8,81.9,0,0,1,�k�k��,5.8,28
2014/10/11,4:00:00,14,�k��,2.6,9.2,67,0,0,13,���k��,6.2,55
2014/10/11,5:00:00,14,�k��,5,9.7,60.9,0,0,6,�쓌,10.8,52
2014/10/11,6:00:00,14,�k��,8.3,10.3,50.8,0,0.01,14,�k��,15.4,52
2014/10/11,7:00:00,14,�k��,3.7,10.7,52.8,0,0.14,13,���k��,13.4,19
2014/10/11,8:00:00,14,�k��,8.7,11.6,45.4,0,0.35,14,�k��,16.7,57
2014/10/11,9:00:00,14,�k��,9.5,12.3,42.3,0,0.53,14,�k��,18.6,50
2014/10/11,10:00:00,14,�k��,7.9,13.4,40.9,0,0.66,13,���k��,18.3,33
2014/10/11,11:00:00,14,�k��,7.4,14.2,46.3,0,0.73,14,�k��,17.1,49
2014/10/11,12:00:00,15,�k�k��,5.1,15,41.7,0,0.73,14,�k��,14.4,9
2014/10/11,13:00:00,14,�k��,5.9,15.2,40.7,0,0.69,1,�k�k��,13.6,38
2014/10/11,14:00:00,15,�k�k��,3.8,16.3,45.8,0,0.68,14,�k��,10,7
2014/10/11,15:00:00,16,�k,3.9,15.6,45.8,0,0.3,15,�k�k��,8.8,9
2014/10/11,16:00:00,2,�k��,4.7,13.1,59.4,0,0.08,1,�k�k��,8.5,44
2014/10/11,17:00:00,2,�k��,2.4,10.4,70.6,0,0.04,2,�k��,7.1,23
2014/10/11,18:00:00,1,�k�k��,3.9,10.3,70.8,0,0,2,�k��,6.6,50
2014/10/11,19:00:00,1,�k�k��,3.5,9.8,73.8,0,0,1,�k�k��,6.9,30
2014/10/11,20:00:00,12,��,1.4,5.3,92.5,0,0,1,�k�k��,4.7,3
2014/10/11,21:00:00,12,��,1,6,96.2,0,0,13,���k��,2.3,33
2014/10/11,22:00:00,13,���k��,2.1,4.6,98.1,0,0,13,���k��,3.8,48
2014/10/11,23:00:00,13,���k��,2.5,4.1,91.8,0,0,13,���k��,4.1,51
2014/10/11,0:00:00,13,���k��,2.2,3.2,96.5,0,0,12,��,3.5,36
2014/10/12,1:00:00,13,���k��,3.1,5.1,92.6,0,0,14,�k��,5.2,59
2014/10/12,2:00:00,13,���k��,2.6,4.8,94.5,0,0,13,���k��,5.1,5
2014/10/12,3:00:00,13,���k��,2.2,4.8,90.3,0,0,13,���k��,5.2,37
2014/10/12,4:00:00,13,���k��,2.4,5,90.3,0,0,12,��,3.9,48
2014/10/12,5:00:00,12,��,1.1,3.7,94.6,0,0,13,���k��,4.4,31
2014/10/12,6:00:00,13,���k��,2.6,3.3,94.7,0,0.01,13,���k��,3.8,49
2014/10/12,7:00:00,12,��,1.8,5.5,89.4,0,0.14,14,�k��,3.8,40
2014/10/12,8:00:00,12,��,1.4,9.2,80.2,0,0.34,13,���k��,3.1,3
2014/10/12,9:00:00,4,��,1.7,12.8,74.3,0,0.52,4,��,3.4,41
2014/10/12,10:00:00,5,���쓌,2.3,12.9,72.1,0,0.63,5,���쓌,4.3,26
2014/10/12,11:00:00,6,�쓌,2.8,12.8,73.1,0,0.71,6,�쓌,5.3,53
2014/10/12,12:00:00,6,�쓌,3.3,12.5,76.4,0,0.62,5,���쓌,5.7,59
2014/10/12,13:00:00,5,���쓌,2.4,12.3,79.5,0,0.4,6,�쓌,5.1,26
2014/10/12,14:00:00,4,��,3.5,14.4,78.8,0,0.37,5,���쓌,6.2,56
2014/10/12,15:00:00,8,��,2.3,15.1,73.3,0,0.42,8,��,6.8,22
2014/10/12,16:00:00,8,��,1.8,14.4,79.7,0,0.23,7,��쓌,4.6,35
2014/10/12,17:00:00,13,���k��,1.5,11.2,95,0,0.05,8,��,2.4,2
2014/10/12,18:00:00,12,��,1.5,9.8,95.6,0,0,13,���k��,3,32
2014/10/12,19:00:00,13,���k��,2.5,9,97.3,0,0,13,���k��,3,54
2014/10/12,20:00:00,12,��,2,7.2,98.7,0,0,13,���k��,2.7,0
2014/10/12,21:00:00,13,���k��,1.5,6.8,99.4,0,0,12,��,3.1,10
2014/10/12,22:00:00,12,��,1.5,5.6,99.3,0,0,12,��,3.1,40
2014/10/12,23:00:00,13,���k��,1.9,4.8,99.9,0,0,13,���k��,2.6,53
2014/10/12,0:00:00,13,���k��,2.4,4.8,99.9,0,0,13,���k��,3.6,56
2014/10/13,1:00:00,13,���k��,2.3,5,100,0,0,12,��,3.2,7
2014/10/13,2:00:00,13,���k��,1.7,5.4,99.8,0,0,13,���k��,3.1,10
2014/10/13,3:00:00,13,���k��,1.9,6.3,97.9,0,0,13,���k��,3.8,48
2014/10/13,4:00:00,13,���k��,1.7,6.1,98,0,0,12,��,3.3,59
2014/10/13,5:00:00,12,��,2,6.5,97.7,0,0,12,��,3.2,14
2014/10/13,6:00:00,13,���k��,2.4,6.8,98,0,0.01,13,���k��,3.9,17
2014/10/13,7:00:00,12,��,1.9,7.5,96.5,0,0.06,14,�k��,3.4,8
2014/10/13,8:00:00,14,�k��,1.2,9.7,91.9,0,0.14,13,���k��,3.5,45
2014/10/13,9:00:00,13,���k��,0.7,12.5,86.3,0,0.3,12,��,1.9,0
2014/10/13,10:00:00,12,��,0.3,13.2,77.8,0,0.24,14,�k��,1.9,30
2014/10/13,11:00:00,2,�k��,1.7,14.9,79.3,0,0.32,2,�k��,2.9,50
2014/10/13,12:00:00,3,���k��,2.7,16.4,67,0,0.4,2,�k��,3.9,35
2014/10/13,13:00:00,5,���쓌,2.2,16.5,73.2,0,0.38,4,��,4,16
2014/10/13,14:00:00,8,��,1.7,15,76.8,0,0.28,6,�쓌,3.7,5
2014/10/13,15:00:00,5,�É�,0.2,15,74.3,0,0.17,8,��,2.3,3
2014/10/13,16:00:00,8,��,1.5,13.9,83.1,0,0.07,8,��,2.1,57
2014/10/13,17:00:00,13,�É�,0.1,12.5,92,0,0.01,7,��쓌,2.5,0
2014/10/13,18:00:00,2,�k��,1.5,12.3,91.4,0,0,2,�k��,3.9,58
2014/10/13,19:00:00,2,�k��,2.7,12.5,87,0,0,1,�k�k��,5.1,57
2014/10/13,20:00:00,1,�k�k��,1.9,12.1,86.2,0,0,2,�k��,4.9,4
2014/10/13,21:00:00,1,�k�k��,1.6,11.3,92.7,0,0,1,�k�k��,4.1,1
2014/10/13,22:00:00,1,�k�k��,1.4,10.6,95.4,0.5,0,2,�k��,3.1,33
2014/10/13,23:00:00,1,�k�k��,1.7,10.4,96.2,0,0,16,�k,3.4,20
2014/10/13,0:00:00,2,�k��,2.4,10.2,97.2,1,0,1,�k�k��,4.2,53
2014/10/14,1:00:00,1,�k�k��,3,9.9,97.2,2,0,2,�k��,5,13
2014/10/14,2:00:00,15,�k�k��,2,9.7,96.5,2.5,0,1,�k�k��,5.7,21
2014/10/14,3:00:00,14,�k��,1.9,9.4,96.6,3,0,15,�k�k��,5.3,10
2014/10/14,4:00:00,14,�k��,3.1,8.7,97.1,3,0,14,�k��,6,48
2014/10/14,5:00:00,14,�k��,3.6,8.3,97.1,2,0,14,�k��,6.7,44
2014/10/14,6:00:00,14,�k��,2.9,7.9,97.6,3.5,0,14,�k��,5.9,12
2014/10/14,7:00:00,15,�k�k��,2.5,7.6,97.8,4.5,0.01,14,�k��,6.8,24
2014/10/14,8:00:00,15,�k�k��,2.6,7.8,97,3.5,0.01,15,�k�k��,6.5,16
2014/10/14,9:00:00,15,�k�k��,3.1,7.7,97,6,0.01,16,�k,7.3,59
2014/10/14,10:00:00,14,�k��,2.9,7.5,96.6,5,0.02,1,�k�k��,7,7
2014/10/14,11:00:00,14,�k��,4.4,7,96.2,4.5,0.02,14,�k��,8.5,56
2014/10/14,12:00:00,14,�k��,5.8,6.6,96.1,4.5,0.03,15,�k�k��,10.2,56
2014/10/14,13:00:00,14,�k��,7.2,6.1,94.5,3,0.02,14,�k��,11.7,55
2014/10/14,14:00:00,14,�k��,6.9,5.8,92.9,3.5,0.02,14,�k��,12.6,56
2014/10/14,15:00:00,14,�k��,5.4,5.7,93.5,4,0.03,14,�k��,13.4,16
2014/10/14,16:00:00,14,�k��,5,5.9,93,2,0.03,15,�k�k��,11.3,1
2014/10/14,17:00:00,14,�k��,3.8,6,93.2,1,0.01,14,�k��,9.2,8
2014/10/14,18:00:00,14,�k��,3.5,6.1,92.9,0,0,13,���k��,7.4,23
2014/10/14,19:00:00,14,�k��,3.5,6.2,92.6,0,0,13,���k��,7.2,27
2014/10/14,20:00:00,14,�k��,2.8,6.5,93.8,0.5,0,14,�k��,6,4
2014/10/14,21:00:00,14,�k��,2.5,6.8,92.9,0,0,14,�k��,5.8,47
2014/10/14,22:00:00,14,�k��,1.1,6.9,91.7,0,0,14,�k��,3.5,2
2014/10/14,23:00:00,14,�k��,2,7,91.7,0,0,14,�k��,4,59
2014/10/14,0:00:00,14,�k��,2.1,6.7,91.4,0,0,14,�k��,5.2,19
2014/10/15,1:00:00,13,���k��,0.8,5.8,94.1,0,0,14,�k��,8.1,52
2014/10/15,2:00:00,13,���k��,1.6,6,90.3,0,0,13,���k��,3.7,32
2014/10/15,3:00:00,9,�É�,0.2,5.6,91,0,0,13,���k��,3.6,6
2014/10/15,4:00:00,13,���k��,0.5,5.6,90.8,0,0,7,��쓌,25.3,3
2014/10/15,5:00:00,13,���k��,1.5,5.2,86.6,0,0,14,�k��,4.5,30
2014/10/15,6:00:00,11,���쐼,1.9,3,97.5,0,0.01,11,���쐼,2.9,43
2014/10/15,7:00:00,12,��,1.1,5.6,82.7,0,0.15,12,��,2.3,57
2014/10/15,8:00:00,14,�k��,1.4,7.9,75.9,0,0.35,14,�k��,3.7,27
2014/10/15,9:00:00,2,�k��,1.6,10.3,63.9,0,0.53,1,�k�k��,3.4,47
2014/10/15,10:00:00,3,���k��,1.2,11.7,66.9,0,0.65,3,���k��,4,25
2014/10/15,11:00:00,4,��,2.1,11.7,59.2,0,0.72,3,���k��,4.1,52
2014/10/15,12:00:00,7,��쓌,2.6,11,64.6,0,0.73,6,�쓌,4.9,46
2014/10/15,13:00:00,7,��쓌,3.2,11.6,60.5,0,0.68,7,��쓌,5.7,42
2014/10/15,14:00:00,8,��,3.3,11.4,52.3,0,0.59,9,��쐼,5.7,55
2014/10/15,15:00:00,8,��,2.6,11.2,66.7,0,0.43,8,��,5.8,0
2014/10/15,16:00:00,9,��쐼,1.4,10.7,69.1,0,0.23,8,��,5,19
2014/10/15,17:00:00,9,��쐼,1.1,7.5,92.4,0,0.04,8,��,2.2,0
2014/10/15,18:00:00,13,���k��,0.8,4.9,96.2,0,0,9,��쐼,2.3,4
2014/10/15,19:00:00,12,��,2.1,4.6,99.4,0,0,12,��,2.4,59
2014/10/15,20:00:00,12,��,1.9,3.8,98.8,0,0,12,��,2.9,51
2014/10/15,21:00:00,12,��,1.9,3.6,99.3,0,0,12,��,2.8,55
2014/10/15,22:00:00,12,��,1.3,2.9,99.6,0,0,12,��,3.2,6
2014/10/15,23:00:00,13,���k��,2.4,2.7,99.6,0,0,12,��,3.3,3
2014/10/15,0:00:00,13,���k��,2,2.9,99.2,0,0,13,���k��,3.1,47
2014/10/16,1:00:00,13,���k��,1.6,4.1,97.8,0,0,13,���k��,3.2,21
2014/10/16,2:00:00,13,���k��,1.7,3.7,96.5,0,0,14,�k��,4.3,5
2014/10/16,3:00:00,13,���k��,2.2,3.6,97.4,0,0,13,���k��,3.7,25
2014/10/16,4:00:00,13,���k��,2.9,4.4,95.6,0,0,14,�k��,4.8,54
2014/10/16,5:00:00,14,�k��,1.8,4.5,94.5,0,0,14,�k��,5.2,46
2014/10/16,6:00:00,13,���k��,2.9,4.8,94,0,0.01,13,���k��,5.1,38
2014/10/16,7:00:00,14,�k��,2.6,5.3,93.4,0,0.03,13,���k��,5,30
2014/10/16,8:00:00,13,���k��,2.3,6,93.6,0,0.04,14,�k��,4.2,28
2014/10/16,9:00:00,14,�k��,2.9,7.2,87.5,0,0.2,14,�k��,5.2,49
2014/10/16,10:00:00,14,�k��,2.9,9.2,85.5,0,0.3,13,���k��,5.3,43
2014/10/16,11:00:00,14,�k��,1.6,9.6,89.8,0,0.16,13,���k��,4.9,8
2014/10/16,12:00:00,14,�k��,2.3,9.1,92.9,0,0.11,13,���k��,3.9,50
2014/10/16,13:00:00,14,�k��,2.5,9.3,94.2,0,0.14,13,���k��,4.4,37
2014/10/16,14:00:00,15,�k�k��,0.6,9.7,94.4,0,0.1,14,�k��,3.6,7
2014/10/16,15:00:00,13,���k��,0.8,9.8,95.9,0,0.08,13,���k��,2.1,14
2014/10/16,16:00:00,12,��,1.2,9.8,97.5,0,0.03,13,���k��,1.9,0
2014/10/16,17:00:00,11,���쐼,1.3,9.7,97.1,0,0.01,13,���k��,2.1,11
2014/10/16,18:00:00,12,��,1.6,9.2,98.2,0,0,12,��,2.5,0
2014/10/16,19:00:00,13,���k��,1,9.4,98,0,0,13,���k��,2.5,37
2014/10/16,20:00:00,13,���k��,2.5,9.1,97.9,0,0,13,���k��,3.8,55
2014/10/16,21:00:00,14,�k��,0.8,9.1,97.4,0,0,14,�k��,3.2,31
2014/10/16,22:00:00,14,�k��,2.2,9,97.8,0,0,14,�k��,5,35
2014/10/16,23:00:00,13,���k��,2.8,9.1,98.9,0.5,0,14,�k��,4.2,54
2014/10/16,0:00:00,14,�k��,1.4,9.1,98.7,0,0,14,�k��,4.2,36
2014/10/17,1:00:00,13,���k��,1.8,9,99.6,0.5,0,13,���k��,2.8,59
2014/10/17,2:00:00,14,�k��,1.6,9.2,99.7,0,0,15,�k�k��,3.1,14
2014/10/17,3:00:00,14,�k��,1.8,9.2,99.5,0.5,0,14,�k��,3.4,47
2014/10/17,4:00:00,14,�k��,1.6,9.1,99.1,0,0,15,�k�k��,3.6,54
2014/10/17,5:00:00,13,���k��,1.7,9,98.8,1,0,13,���k��,3,57
2014/10/17,6:00:00,13,���k��,1.6,8.8,98.9,0,0,13,���k��,2.5,4
2014/10/17,7:00:00,13,���k��,1.4,9.2,99.3,0,0.02,12,��,2.7,30